Weather History for Champaign, IL

Change the Weather History Date:

Tuesday, November 13, 2012

  Actual Average Record
Temperature  
Mean Temperature 33 °F 43 °F  
Max Temperature 42 °F 53 °F 73 °F (1999)
Min Temperature 24 °F 33 °F 14 °F (2014)
Degree Days  
Heating Degree Days 32 22  
Month to date heating degree days 288 252  
Since 1 July heating degree days 774 713  
Cooling Degree Days 0 0  
Month to date cooling degree days 0 0  
Year to date cooling degree days 1290 944  
Moisture  
Dew Point 24 °F    
Average Humidity 67    
Maximum Humidity 88    
Minimum Humidity 46    
Precipitation  
Precipitation 0.00 in 0.13 in 0.27 in (1949)
Month to date precipitation 1.00 1.50  
Year to date precipitation 26.43 35.20  
Sea Level Pressure  
Sea Level Pressure 30.50 in    
Wind  
Wind Speed 4 mph (WSW)    
Max Wind Speed 9 mph    
Max Gust Speed -    
Visibility 10 miles    
Events      
T = Trace of Precipitation, MM = Missing Value Source: NWS Daily Summary

Daily Weather History Graph

Daily Weather History Graph

Search for Another Location

Airport:

Trip Planner

Search our weather history database for the weather conditions in past years. The results will help you decide how hot, cold, wet, or windy it might be!

Date:

Astronomy

Nov. 13, 2012 Rise Set
Actual Time 6:36 AM CST 4:37 PM CST
Civil Twilight 6:07 AM CST 5:06 PM CST
Nautical Twilight 5:35 AM CST 5:39 PM CST
Astronomical Twilight 5:03 AM CST 6:11 PM CST
Moon 6:14 AM CST (11/13) 4:30 PM CST (11/13)
Length of Visible Light 10h 59m
Length of Day
10h 01m
Waning Crescent, 0% of the Moon is Illuminated
Nov 13
Waning Crescent
Nov 13
New
Nov 20
First Quarter
Nov 28
Full
Dec 6
Last Quarter

Hourly Weather History & Observations

Time (CST) Temp. Windchill Dew Point Humidity Pressure Visibility Wind Dir Wind Speed Gust Speed Precip Events Conditions
12:53 AM 30.0 °F 22.4 °F 25.0 °F 82% 30.43 in 10.0 mi WSW 8.1 mph - N/A   Clear
1:53 AM 28.0 °F 20.8 °F 24.1 °F 85% 30.43 in 10.0 mi WSW 6.9 mph - N/A   Clear
2:53 AM 27.0 °F 20.5 °F 23.0 °F 85% 30.44 in 10.0 mi West 5.8 mph - N/A   Clear
3:53 AM 26.1 °F 19.4 °F 23.0 °F 88% 30.46 in 10.0 mi WSW 5.8 mph - N/A   Clear
4:53 AM 25.0 °F 18.1 °F 21.9 °F 88% 30.48 in 10.0 mi WSW 5.8 mph - N/A   Clear
5:53 AM 24.1 °F 18.2 °F 21.0 °F 88% 30.50 in 10.0 mi WSW 4.6 mph - N/A   Clear
6:53 AM 25.0 °F 19.3 °F 21.9 °F 88% 30.52 in 10.0 mi West 4.6 mph - N/A   Clear
7:53 AM 28.9 °F 22.8 °F 24.1 °F 82% 30.53 in 10.0 mi WNW 5.8 mph - N/A   Clear
8:53 AM 32.0 °F 25.6 °F 26.1 °F 79% 30.54 in 10.0 mi WNW 6.9 mph - N/A   Clear
9:53 AM 35.1 °F 31.0 °F 24.1 °F 64% 30.55 in 10.0 mi Variable 4.6 mph - N/A   Clear
10:53 AM 36.0 °F 30.3 °F 23.0 °F 59% 30.55 in 10.0 mi WNW 6.9 mph - N/A   Clear
11:53 AM 37.9 °F - 23.0 °F 55% 30.53 in 10.0 mi Calm Calm - N/A   Clear
12:53 PM 39.0 °F 34.0 °F 24.1 °F 55% 30.51 in 10.0 mi WNW 6.9 mph - N/A   Clear
1:53 PM 41.0 °F 39.0 °F 24.1 °F 51% 30.50 in 10.0 mi North 3.5 mph - N/A   Clear
2:53 PM 41.0 °F - 24.1 °F 51% 30.50 in 10.0 mi Calm Calm - N/A   Clear
3:53 PM 41.0 °F - 23.0 °F 49% 30.49 in 10.0 mi Calm Calm - N/A   Clear
4:53 PM 37.9 °F - 24.1 °F 57% 30.50 in 10.0 mi Calm Calm - N/A   Clear
5:53 PM 37.0 °F - 24.1 °F 59% 30.51 in 10.0 mi Calm Calm - N/A   Clear
6:53 PM 32.0 °F 27.5 °F 24.1 °F 73% 30.52 in 9.0 mi SE 4.6 mph - 0.00 in   Clear
7:53 PM 28.9 °F 22.8 °F 24.1 °F 82% 30.51 in 10.0 mi East 5.8 mph - 0.00 in   Clear
8:53 PM 28.9 °F - 24.1 °F 82% 30.52 in 10.0 mi Calm Calm - N/A   Clear
9:53 PM 28.9 °F - 25.0 °F 85% 30.52 in 10.0 mi Calm Calm - N/A   Clear
10:53 PM 30.0 °F 25.2 °F 25.0 °F 82% 30.53 in 10.0 mi SE 4.6 mph - N/A   Clear
11:53 PM 30.0 °F 25.2 °F 25.0 °F 82% 30.52 in 10.0 mi SE 4.6 mph - N/A   Clear